Showing default

NOKHCHO, 61767

Orbit data source: Space-Track

NOKHCHO, 61767 is a payload satellite owned by Chechen State U (CIS) in SSO that was launched on Mon, 04 Nov 2024 UTC via a SOYUZ-2-1B launch vehicle from the Vostochny Cosmodrome (VOSTO). Payload-class satellites include a variety of spacecraft equipped with specific instruments for various scientific and technological missions. These include communications satellites like Starlink; space stations such as the ISS; scientific satellites like the Hubble; Earth observation satellites from companies like Planet Labs, Umbra, and HawkEye 360; GPS; miniature CubeSats for education and research; and military/defense satellites.

Loading next visibility...
Identifier
61767, 2024-199AJ
Orbit
SSO
Country
Flag of CISCIS
Related business
Manufacturer
Yugo-Zapad. GU
Mission
Operational Commercial Technology
Bus & Motor
CUBESAT 3U, Unknown motor
Mass
2.5 kg wet, 2.5 kg dry
Launch date (UTC)
2024-11-04 (10 months ago)
Launch vehicle
SOYUZ-2-1B
Launch site
Vostochny Cosmodrome (VOSTO)
Object type
Payload
Rocket body
Debris
Shape & HBR
Box, 0.1 m
Radar Cross Section
0.035 m², Small (<0.1 m²)

Expand to show TLE details & history
Last TLE update: 15 hours ago

TLE from 15 hours ago
0 NOKHCHO
1 61767U 24199AJ  25260.22448167  .00055386  00000-0  88396-3 0  9995
2 61767  97.3313 132.0311 0008973 145.9468 214.2363 15.52989211 92465
Epoch: 2025-09-17T05:23Z
TLE epoch observation values (Epoch: 2025-09-17T05:23:15.216Z)
Latitude
0.00003°
Longitude
54.8142°
Altitude
416.178 km
Speed
7.658 km/s
True Right ascension
08h 48m 07s
True Declination
0° 00' 00"
Sunlit
Object was in daylight at epoch
Visualization orbit readout
Latitude
Unknown
Longitude
Unknown
Altitude
Unknown
Speed
Unknown
Apparent Right ascension
Unknown
Apparent Declination
Unknown
Sunlit
N/A
Visualization observer readout
Local Sidereal Time
13:12:53
Azimuth
Unknown
Elevation
Unknown
Doppler factor
Unknown
Orbital elements
Apogee altitude
411.009 km
Perigee altitude
398.836 km
Semi-major axis
6,783.06 km
Eccentricity
0.0009
Inclination
97.3313°
RAAN
132.0311°
Arg. of periapsis
145.9468°
True anomaly
214.1785°
Mean anomaly
214.2363°
Eccentric anomaly
214.2074°
Mean motion
3.88512 °/min
Orbital period
92.66 mins
BSTAR
0.00088396
Loading maneuver chart data...
Computing Atmospheric mass density...
Loading historical data...
Loading historical data...
Loading historical data...
Loading historical data...
Loading historical data...
Loading historical data...
Loading historical data...

Documentation

Showing up to 5 results
|